KJ4AJP Weather Reports


time (UTC)temp
F
wind
direction
speed
knots
gust
knots
rain 1hr
in
rain 24hr
in
rain mn
in
humidity
%
barometer
mb
20260905201810 97 61 0.0 0.0 0.00 0.00 0.00 47 1011.6
20260905201305 98 61 0.0 0.0 0.00 0.00 0.00 47 1011.5
20260905200804 99 60 0.0 0.0 0.00 0.00 0.00 46 1011.7
20260905200301 100 71 0.9 0.9 0.00 0.00 0.00 46 1011.7
20260905195758 101 37 0.9 0.9 0.00 0.00 0.00 41 1011.7
20260905195254 102 47 0.9 0.9 0.00 0.00 0.00 42 1011.8
20260905194749 102 54 0.0 0.0 0.00 0.00 0.00 41 1011.9
20260905194249 101 64 0.0 0.0 0.00 0.00 0.00 42 1012.1
20260905193748 101 245 1.7 1.7 0.00 0.00 0.00 39 1012.1
20260905193243 101 314 1.7 1.7 0.00 0.00 0.00 41 1012.3
20260905192738 101 42 0.9 0.9 0.00 0.00 0.00 43 1012.3
20260905192235 101 60 0.0 0.0 0.00 0.00 0.00 42 1012.3
20260905191734 100 56 0.0 0.0 0.00 0.00 0.00 44 1012.4
20260905191232 98 65 0.0 0.0 0.00 0.00 0.00 44 1012.4
20260905190731 98 58 0.0 0.0 0.00 0.00 0.00 51 1012.6
20260905190230 100 59 0.9 0.9 0.00 0.00 0.00 45 1012.8
20260905185730 102 61 0.0 0.0 0.00 0.00 0.00 40 1012.9
20260905185224 102 51 0.9 0.9 0.00 0.00 0.00 40 1013.0
20260905184719 102 104 0.9 0.9 0.00 0.00 0.00 40 1012.9
20260905184218 101 43 0.0 0.0 0.00 0.00 0.00 40 1012.9
20260905183718 101 20 1.7 1.7 0.00 0.00 0.00 41 1012.9
20260905183213 101 58 0.9 1.7 0.00 0.00 0.00 45 1013.1
20260905182713 102 65 0.9 1.7 0.00 0.00 0.00 44 1013.1
20260905182212 101 62 0.0 0.9 0.00 0.00 0.00 40 1013.0
20260905181708 100 55 1.7 2.6 0.00 0.00 0.00 44 1013.0
20260905181207 100 59 0.0 0.9 0.00 0.00 0.00 42 1013.1
20260905180701 99 56 0.0 0.9 0.00 0.00 0.00 44 1013.2
20260905180157 98 102 0.9 0.9 0.00 0.00 0.00 47 1013.2
20260905175655 100 67 0.0 0.9 0.00 0.00 0.00 46 1013.2
20260905175151 100 27 1.7 1.7 0.00 0.00 0.00 42 1013.3
20260905174647 100 45 0.9 1.7 0.00 0.00 0.00 41 1013.4
20260905174142 100 77 0.9 0.9 0.00 0.00 0.00 41 1013.4
20260905173638 99 70 0.0 0.9 0.00 0.00 0.00 45 1013.3
20260905173134 99 319 1.7 1.7 0.00 0.00 0.00 44 1013.3
20260905172632 100 281 5.2 6.1 0.00 0.00 0.00 42 1013.5
20260905172127 99 51 0.0 0.0 0.00 0.00 0.00 46 1013.5
20260905171624 100 247 2.6 3.5 0.00 0.00 0.00 44 1013.5
20260905171119 99 74 0.9 0.9 0.00 0.00 0.00 45 1013.8
20260905170616 99 44 0.9 0.9 0.00 0.00 0.00 44 1013.7
20260905170112 99 51 0.0 0.0 0.00 0.00 0.00 47 1013.8
20260905165611 100 20 0.9 0.9 0.00 0.00 0.00 45 1013.8
20260905165107 99 69 0.9 0.9 0.00 0.00 0.00 49 1013.8
20260905164602 99 66 0.9 0.9 0.00 0.00 0.00 47 1013.9
20260905164101 100 48 0.0 0.9 0.00 0.00 0.00 46 1014.2
20260905163558 99 68 0.0 0.0 0.00 0.00 0.00 49 1014.1
20260905163054 98 61 0.0 0.0 0.00 0.00 0.00 47 1014.1
20260905162550 98 351 1.7 2.6 0.00 0.00 0.00 47 1014.1
20260905162049 98 57 0.0 0.9 0.00 0.00 0.00 49 1014.2
20260905161549 98 51 0.0 0.0 0.00 0.00 0.00 50 1014.2
20260905161047 98 54 0.0 0.0 0.00 0.00 0.00 51 1014.2
20260905160545 98 70 0.0 0.0 0.00 0.00 0.00 52 1014.4
20260905160045 98 77 0.0 0.9 0.00 0.00 0.00 52 1014.3
20260905155545 98 87 0.9 0.9 0.00 0.00 0.00 48 1014.4
20260905155044 98 82 0.0 0.9 0.00 0.00 0.00 51 1014.3
20260905154539 97 48 0.9 0.9 0.00 0.00 0.00 54 1014.4
20260905154035 96 62 0.0 0.0 0.00 0.00 0.00 54 1014.3
20260905153530 96 60 0.0 0.0 0.00 0.00 0.00 54 1014.4
20260905153030 97 48 0.0 0.9 0.00 0.00 0.00 53 1014.4
20260905152525 97 91 0.0 0.9 0.00 0.00 0.00 54 1014.5
20260905152020 96 67 0.0 0.9 0.00 0.00 0.00 53 1014.6
20260905151515 98 336 1.7 1.7 0.00 0.00 0.00 53 1014.5
20260905151010 98 60 0.0 0.9 0.00 0.00 0.00 52 1014.5
20260905150506 96 66 0.0 0.0 0.00 0.00 0.00 56 1014.6
20260905150003 96 56 0.0 0.0 0.00 0.00 0.00 55 1014.5
20260905145457 95 66 0.0 0.0 0.00 0.00 0.00 56 1014.6
20260905144956 94 64 0.0 0.0 0.00 0.00 0.00 58 1014.5
20260905144452 93 71 0.0 0.9 0.00 0.00 0.00 62 1014.5
20260905143950 91 64 0.0 0.0 0.00 0.00 0.00 62 1014.4
20260905143449 90 69 0.0 0.9 0.00 0.00 0.00 63 1014.6
20260905142945 90 48 0.0 0.0 0.00 0.00 0.00 61 1014.6
20260905142443 90 54 0.0 0.9 0.00 0.00 0.00 62 1014.6
20260905141939 91 50 1.7 1.7 0.00 0.00 0.00 62 1014.5
20260905141434 91 69 0.0 0.0 0.00 0.00 0.00 63 1014.5
20260905140930 90 60 0.0 0.0 0.00 0.00 0.00 67 1014.4
20260905140425 89 58 0.0 0.0 0.00 0.00 0.00 68 1014.6
20260905135924 88 77 0.9 0.9 0.00 0.00 0.00 71 1014.5
20260905135420 87 353 0.9 1.7 0.00 0.00 0.00 72 1014.2
20260905134915 87 42 0.0 0.9 0.00 0.00 0.00 73 1014.4
20260905134414 86 33 0.9 0.9 0.00 0.00 0.00 72 1014.3
20260905133909 86 49 0.0 0.9 0.00 0.00 0.00 73 1014.2
20260905133403 85 48 0.0 0.0 0.00 0.00 0.00 76 1014.3
20260905132903 84 42 0.9 0.9 0.00 0.00 0.00 77 1014.3
20260905132358 84 48 0.0 0.9 0.00 0.00 0.00 78 1014.5
20260905131858 83 52 0.0 0.0 0.00 0.00 0.00 81 1014.3
20260905131354 82 42 0.0 0.9 0.00 0.00 0.00 82 1014.1
20260905130849 82 45 0.0 0.0 0.00 0.00 0.00 84 1014.3
20260905130347 81 50 0.0 0.0 0.00 0.00 0.00 89 1014.1
20260905125843 80 49 0.0 0.0 0.00 0.00 0.00 94 1014.0
20260905125338 79 49 0.0 0.0 0.00 0.00 0.00 99 1014.1
20260905124834 78 49 0.0 0.0 0.00 0.00 0.00 99 1014.1
20260905124330 76 49 0.0 0.0 0.00 0.00 0.00 99 1014.0
20260905123830 76 49 0.0 0.0 0.00 0.00 0.00 99 1013.7
20260905123327 75 50 0.0 0.0 0.00 0.00 0.00 99 1013.8
20260905122827 75 49 0.0 0.0 0.00 0.00 0.00 99 1013.7
20260905122326 74 50 0.0 0.0 0.00 0.00 0.00 99 1013.7
20260905121821 74 50 0.0 0.0 0.00 0.00 0.00 99 1013.9
20260905121318 74 50 0.0 0.0 0.00 0.00 0.00 99 1013.7
20260905120816 74 50 0.0 0.0 0.00 0.00 0.00 99 1013.7
20260905120312 74 50 0.0 0.0 0.00 0.00 0.00 99 1013.7
20260905115812 74 50 0.0 0.0 0.00 0.00 0.00 99 1013.6
20260905115311 74 50 0.0 0.0 0.00 0.00 0.00 99 1013.7
20260905114811 73 50 0.0 0.0 0.00 0.00 0.00 99 1013.7
20260905114310 73 50 0.0 0.0 0.00 0.00 0.00 99 1013.6
20260905113810 73 50 0.0 0.0 0.00 0.00 0.00 99 1013.7
20260905113305 73 50 0.0 0.0 0.00 0.00 0.00 99 1013.6
20260905112801 73 50 0.0 0.0 0.00 0.00 0.00 99 1013.7
20260905112255 73 50 0.0 0.0 0.00 0.00 0.00 98 1013.7
20260905111751 73 50 0.0 0.0 0.00 0.00 0.00 98 1013.5
20260905111251 74 50 0.0 0.0 0.00 0.00 0.00 98 1013.6
20260905110750 74 50 0.0 0.0 0.00 0.00 0.00 98 1013.7
20260905110244 74 50 0.0 0.0 0.00 0.00 0.00 98 1013.5
20260905105740 74 50 0.0 0.0 0.00 0.00 0.00 98 1013.6
20260905105239 74 50 0.0 0.0 0.00 0.00 0.00 98 1013.2
20260905104734 74 50 0.0 0.0 0.00 0.00 0.00 98 1013.2
20260905104230 74 50 0.0 0.0 0.00 0.00 0.00 98 1013.4
20260905103724 74 50 0.0 0.0 0.00 0.00 0.00 98 1013.6
20260905103220 74 50 0.0 0.0 0.00 0.00 0.00 98 1013.4
20260905102716 74 50 0.0 0.0 0.00 0.00 0.00 98 1013.6
20260905102212 74 50 0.0 0.0 0.00 0.00 0.00 98 1013.4
20260905101711 74 50 0.0 0.0 0.00 0.00 0.00 98 1013.4
20260905101210 74 50 0.0 0.0 0.00 0.00 0.00 98 1013.5
20260905100706 74 50 0.0 0.0 0.00 0.00 0.00 98 1013.6
20260905100201 74 50 0.0 0.0 0.00 0.00 0.00 98 1013.4
20260905095700 74 50 0.0 0.0 0.00 0.00 0.00 98 1013.4
20260905095155 74 50 0.0 0.0 0.00 0.00 0.00 98 1013.3
20260905094650 74 50 0.0 0.0 0.00 0.00 0.00 98 1013.1
20260905094149 74 50 0.0 0.0 0.00 0.00 0.00 98 1013.2
20260905093644 74 50 0.0 0.0 0.00 0.00 0.00 98 1013.2
20260905093140 74 50 0.0 0.0 0.00 0.00 0.00 98 1013.2
20260905092640 74 50 0.0 0.0 0.00 0.00 0.00 98 1013.3
20260905092136 74 50 0.0 0.0 0.00 0.00 0.00 98 1013.3
20260905091636 74 50 0.0 0.0 0.00 0.00 0.00 98 1013.1
20260905091135 74 50 0.0 0.0 0.00 0.00 0.00 98 1013.4
20260905090630 74 50 0.0 0.0 0.00 0.00 0.00 98 1013.4
20260905090126 74 50 0.0 0.0 0.00 0.00 0.00 98 1013.3
20260905085624 74 50 0.0 0.0 0.00 0.00 0.00 98 1013.2
20260905085120 74 50 0.0 0.0 0.00 0.00 0.00 97 1013.3
20260905084619 74 50 0.0 0.0 0.00 0.00 0.00 97 1013.4
20260905084115 74 50 0.0 0.0 0.00 0.00 0.00 97 1013.1
20260905083615 74 50 0.0 0.0 0.00 0.00 0.00 97 1013.4
20260905083111 75 50 0.0 0.0 0.00 0.00 0.00 97 1013.3
20260905082606 75 50 0.0 0.0 0.00 0.00 0.00 97 1013.3
20260905082102 75 50 0.0 0.0 0.00 0.00 0.00 97 1013.2
20260905081601 75 50 0.0 0.0 0.00 0.00 0.00 97 1013.2
20260905081057 75 50 0.0 0.0 0.00 0.00 0.00 97 1013.2
20260905080556 75 50 0.0 0.0 0.00 0.00 0.00 97 1013.0
20260905080052 75 50 0.0 0.0 0.00 0.00 0.00 97 1013.0
20260905075551 75 50 0.0 0.0 0.00 0.00 0.00 97 1013.2
20260905075050 75 50 0.0 0.0 0.00 0.00 0.00 97 1013.4
20260905074550 75 50 0.0 0.0 0.00 0.00 0.00 97 1013.2
20260905074045 75 50 0.0 0.0 0.00 0.00 0.00 97 1013.1
20260905073541 75 50 0.0 0.0 0.00 0.00 0.00 96 1013.3
20260905073036 75 50 0.0 0.0 0.00 0.00 0.00 96 1013.2
20260905072536 75 50 0.0 0.0 0.00 0.00 0.00 96 1013.1
20260905072032 75 50 0.0 0.0 0.00 0.00 0.00 96 1013.1
20260905071528 75 50 0.0 0.0 0.00 0.00 0.00 96 1013.2
20260905071028 75 50 0.0 0.0 0.00 0.00 0.00 95 1013.5
20260905070523 75 50 0.0 0.0 0.00 0.00 0.00 95 1013.4
20260905070019 75 50 0.0 0.0 0.00 0.00 0.00 95 1013.2
20260905065516 76 50 0.0 0.0 0.00 0.00 0.00 95 1013.3
20260905065012 76 50 0.0 0.0 0.00 0.00 0.00 95 1013.3
20260905064508 76 50 0.0 0.0 0.00 0.00 0.00 95 1013.5
20260905064003 76 50 0.0 0.0 0.00 0.00 0.00 95 1013.3
20260905063502 76 50 0.0 0.0 0.00 0.00 0.00 94 1013.5
20260905062959 76 50 0.0 0.0 0.00 0.00 0.00 94 1013.4
20260905062457 77 50 0.0 0.0 0.00 0.00 0.00 94 1013.4
20260905061953 77 50 0.0 0.0 0.00 0.00 0.00 94 1013.4
20260905061448 76 50 0.0 0.0 0.00 0.00 0.00 95 1013.6
20260905060947 76 50 0.0 0.0 0.00 0.00 0.00 94 1013.4
20260905060443 76 50 0.0 0.0 0.00 0.00 0.00 94 1013.6
20260905055943 76 50 0.0 0.0 0.00 0.00 0.00 93 1013.6
20260905055443 77 50 0.0 0.0 0.00 0.00 0.00 93 1013.6
20260905054943 77 50 0.0 0.0 0.00 0.00 0.00 93 1013.6
20260905054439 77 50 0.0 0.0 0.00 0.00 0.00 93 1013.5
20260905053939 77 50 0.0 0.0 0.00 0.00 0.00 93 1013.7
20260905053434 77 50 0.0 0.0 0.00 0.00 0.00 93 1013.6
20260905052929 77 50 0.0 0.0 0.00 0.00 0.00 93 1013.6
20260905052428 77 50 0.0 0.0 0.00 0.00 0.00 92 1013.4
20260905051928 77 49 0.0 0.0 0.00 0.00 0.00 91 1013.5
20260905051424 77 49 0.0 0.0 0.00 0.00 0.00 91 1013.5
20260905050922 77 49 0.0 0.0 0.00 0.00 0.00 91 1013.5
20260905050417 78 49 0.0 0.0 0.00 0.00 0.00 91 1013.4
20260905045913 78 49 0.0 0.0 0.00 0.00 0.00 91 1013.5
20260905045408 78 49 0.0 0.0 0.00 0.00 0.00 91 1013.5
20260905044903 78 49 0.0 0.0 0.00 0.00 0.00 91 1013.5
20260905044358 78 49 0.0 0.0 0.00 0.00 0.00 91 1013.6
20260905043856 78 49 0.0 0.0 0.00 0.00 0.00 91 1013.7
20260905043352 78 49 0.0 0.0 0.00 0.00 0.00 91 1013.8
20260905042846 78 49 0.0 0.0 0.00 0.00 0.00 90 1013.8
20260905042346 78 49 0.0 0.0 0.00 0.00 0.00 90 1013.8
20260905041841 78 49 0.0 0.0 0.00 0.00 0.00 90 1013.8
20260905041338 78 49 0.0 0.0 0.00 0.00 0.00 90 1013.9
20260905040838 78 49 0.0 0.0 0.00 0.00 0.00 90 1013.8
20260905040337 78 49 0.0 0.0 0.00 0.00 0.00 89 1013.7
20260905035836 78 49 0.0 0.0 0.00 0.00 0.00 88 1013.8
20260905035332 79 49 0.0 0.0 0.00 0.00 0.00 88 1013.8
20260905034828 79 49 0.0 0.0 0.00 0.00 0.00 88 1013.7
20260905034324 79 49 0.0 0.0 0.00 0.00 0.00 88 1013.7
20260905033822 79 49 0.0 0.0 0.00 0.00 0.00 87 1013.6
20260905033318 79 49 0.0 0.0 0.00 0.00 0.00 88 1013.8
20260905032817 79 49 0.0 0.0 0.00 0.00 0.00 88 1013.8
20260905032313 79 49 0.0 0.0 0.00 0.00 0.00 88 1013.9
20260905031808 79 49 0.0 0.0 0.00 0.00 0.00 88 1013.9
20260905031304 79 49 0.0 0.0 0.00 0.00 0.00 87 1013.9
20260905030758 79 49 0.0 0.0 0.00 0.00 0.00 87 1014.1
20260905030254 80 49 0.0 0.0 0.00 0.00 0.00 87 1013.9
20260905025748 80 49 0.0 0.0 0.00 0.00 0.00 87 1013.8
20260905025244 80 49 0.0 0.0 0.00 0.00 0.00 87 1014.0
20260905024739 80 49 0.0 0.0 0.00 0.00 0.00 86 1013.9
20260905024235 80 49 0.0 0.0 0.00 0.00 0.00 86 1013.8
20260905023735 80 49 0.0 0.0 0.00 0.00 0.00 85 1013.8
20260905023230 80 49 0.0 0.0 0.00 0.00 0.00 84 1013.9
20260905022729 80 49 0.0 0.0 0.00 0.00 0.00 84 1013.6
20260905022225 81 49 0.0 0.0 0.00 0.00 0.00 84 1013.7
20260905021719 81 49 0.0 0.0 0.00 0.00 0.00 84 1013.6
20260905021214 81 49 0.0 0.0 0.00 0.00 0.00 84 1013.6
20260905020709 81 49 0.0 0.0 0.00 0.00 0.00 84 1013.5
20260905020204 81 49 0.0 0.0 0.00 0.00 0.00 84 1013.6
20260905015703 81 49 0.0 0.0 0.00 0.00 0.00 83 1013.5
20260905015202 81 49 0.0 0.0 0.00 0.00 0.00 82 1013.6
20260905014701 82 49 0.0 0.0 0.00 0.00 0.00 81 1013.6
20260905014156 82 49 0.0 0.0 0.00 0.00 0.00 81 1013.4
20260905013653 82 49 0.0 0.0 0.00 0.00 0.00 81 1013.5
20260905013148 82 49 0.0 0.0 0.00 0.00 0.00 80 1013.5
20260905012644 83 49 0.0 0.0 0.00 0.00 0.00 79 1013.3
20260905012140 83 49 0.0 0.0 0.00 0.00 0.00 79 1013.4
20260905011636 83 49 0.0 0.0 0.00 0.00 0.00 78 1013.3
20260905011131 84 49 0.0 0.0 0.00 0.00 0.00 77 1013.3
20260905010626 84 49 0.0 0.0 0.00 0.00 0.00 76 1013.2
20260905010122 84 49 0.0 0.0 0.00 0.00 0.00 76 1013.2
20260905005618 85 49 0.0 0.0 0.00 0.00 0.00 74 1013.2
20260905005114 85 49 0.0 0.0 0.00 0.00 0.00 73 1013.0
20260905004613 85 49 0.0 0.0 0.00 0.00 0.00 72 1013.1
20260905004108 86 49 0.0 0.0 0.00 0.00 0.00 72 1013.2
20260905003604 86 49 0.0 0.0 0.00 0.00 0.00 71 1013.1
20260905003100 86 49 0.0 0.0 0.00 0.00 0.00 70 1013.0
20260905002555 86 49 0.0 0.0 0.00 0.00 0.00 69 1012.9
20260905002050 87 49 0.0 0.0 0.00 0.00 0.00 67 1013.0
20260905001545 87 49 0.0 0.0 0.00 0.00 0.00 67 1012.9
20260905001044 88 49 0.0 0.0 0.00 0.00 0.00 65 1013.0
20260905000539 89 49 0.0 0.0 0.00 0.00 0.00 64 1012.8
20260905000036 89 49 0.0 0.0 0.00 0.00 0.00 63 1012.8
20260904235530 90 49 0.0 0.0 0.00 0.00 0.00 62 1012.7
20260904235030 91 49 0.0 0.0 0.00 0.00 0.00 61 1012.8
20260904234530 91 49 0.0 0.0 0.00 0.00 0.00 59 1013.0
20260904234026 92 49 0.0 0.0 0.00 0.00 0.00 56 1012.9
20260904233521 93 49 0.0 0.0 0.00 0.00 0.00 55 1012.9
20260904233017 94 49 0.0 0.0 0.00 0.00 0.00 53 1012.9
20260904232514 95 49 0.0 0.0 0.00 0.00 0.00 51 1012.8
20260904232010 96 49 0.0 0.0 0.00 0.00 0.00 50 1012.9
20260904231506 97 49 0.0 0.0 0.00 0.00 0.00 48 1012.7
20260904231000 98 49 0.0 0.0 0.00 0.00 0.00 47 1012.8
20260904230459 98 49 0.0 0.0 0.00 0.00 0.00 47 1012.7
20260904225954 99 49 0.0 0.0 0.00 0.00 0.00 44 1012.9
20260904225452 99 49 0.0 0.0 0.00 0.00 0.00 43 1012.9
20260904224946 99 49 0.0 0.0 0.00 0.00 0.00 47 1012.8
20260904224442 99 49 0.0 0.0 0.00 0.00 0.00 46 1012.7
20260904223942 99 49 0.0 0.0 0.00 0.00 0.00 45 1012.6
20260904223441 100 47 0.0 0.9 0.00 0.00 0.00 44 1012.6
20260904222937 101 48 0.0 0.0 0.00 0.00 0.00 44 1012.6
20260904222432 101 48 0.0 0.0 0.00 0.00 0.00 43 1012.7
20260904221932 101 57 0.0 0.0 0.00 0.00 0.00 43 1012.7
20260904221426 101 57 0.0 0.0 0.00 0.00 0.00 43 1012.6
20260904220922 101 57 0.0 0.0 0.00 0.00 0.00 42 1012.6
20260904220421 101 54 0.0 0.0 0.00 0.00 0.00 44 1012.7
20260904215917 100 49 0.0 0.0 0.00 0.00 0.00 44 1012.6
20260904215412 99 56 0.0 0.0 0.00 0.00 0.00 48 1012.9
20260904214908 99 64 0.0 0.0 0.00 0.00 0.00 47 1012.7
20260904214403 99 58 0.0 0.0 0.00 0.00 0.00 46 1012.7
20260904213901 100 61 0.0 0.0 0.00 0.00 0.00 47 1012.9
20260904213357 100 43 0.0 0.9 0.00 0.00 0.00 43 1012.9
20260904212853 100 23 0.9 0.9 0.00 0.00 0.00 42 1013.0
20260904212352 99 56 0.0 0.0 0.00 0.00 0.00 47 1013.1
20260904211848 98 52 0.0 0.0 0.00 0.00 0.00 47 1013.0
20260904211344 98 267 1.7 2.6 0.00 0.00 0.00 46 1013.1
20260904210838 97 46 0.0 0.0 0.00 0.00 0.00 52 1013.2
20260904210338 95 33 0.9 0.9 0.00 0.00 0.00 52 1013.2
20260904205834 93 16 0.0 0.9 0.00 0.00 0.00 59 1013.5
20260904205330 90 144 1.7 1.7 0.00 0.00 0.00 60 1013.5
20260904204826 87 7 0.9 1.7 0.00 0.00 0.00 64 1013.6
20260904204322 86 337 1.7 1.7 0.00 0.00 0.00 65 1014.0
20260904203818 86 45 0.0 0.9 0.00 0.00 0.00 72 1014.0
20260904203315 86 45 0.0 0.9 0.00 0.00 0.00 70 1014.1
20260904202815 86 40 0.0 0.9 0.00 0.00 0.00 70 1014.0
20260904202311 86 62 0.0 0.0 0.00 0.00 0.00 69 1014.1